Terminal Aerodrome Forecast
Issued by NWS

Current Version | Previous Version | Graphics & Text | Print | Product List | Glossary On
Versions: 1 2 3 4 5 6 7 8 9 10 11 12 13 14 15 16 17 18 19 20
098
FTUS41 KPBZ 250147 AAA
TAFMGW
TAF AMD
KMGW 250147Z 2502/2524 22005KT P6SM BKN080
     FM252300 VRB03KT P6SM BKN050=

USA.gov is the U.S. government's official web portal to all federal, state and local government web resources and services.